Weather History for KPNS - October, 2013

Change the Weather History Date:

Tuesday, October 22, 2013

  Actual Average Record
Temperature  
Mean Temperature 68 °F 68 °F  
Max Temperature 74 °F 77 °F 90 °F (1963)
Min Temperature 61 °F 58 °F 42 °F (1976)
Degree Days  
Heating Degree Days 0 2  
Month to date heating degree days 0 14  
Since 1 July heating degree days 0 15  
Cooling Degree Days 3 4  
Month to date cooling degree days 203 147  
Year to date cooling degree days 2661 2517  
Growing Degree Days 18 (Base 50)    
Moisture  
Dew Point 61 °F    
Average Humidity 77    
Maximum Humidity 93    
Minimum Humidity 61    
Precipitation  
Precipitation 0.11 in 0.17 in 2.53 in (1919)
Month to date precipitation 1.89 3.74  
Year to date precipitation 65.55 54.49  
Sea Level Pressure  
Sea Level Pressure 29.95 in    
Wind  
Wind Speed 4 mph (NW)    
Max Wind Speed 13 mph    
Max Gust Speed 17 mph    
Visibility 10 miles    
Events Rain    
T = Trace of Precipitation, MM = Missing Value Source: NWS Daily Summary

Daily Weather History Graph

Daily Weather History Graph

Search for Another Location

Airport or City:

Trip Planner

Search our weather history database for the weather conditions in past years. The results will help you decide how hot, cold, wet, or windy it might be!

Date:

Astronomy

Oct. 22, 2013 Rise Set
Actual Time 6:55 AM CDT 6:09 PM CDT
Civil Twilight 6:31 AM CDT 6:34 PM CDT
Nautical Twilight 6:03 AM CDT 7:02 PM CDT
Astronomical Twilight 5:35 AM CDT 7:30 PM CDT
Moon 9:00 PM CDT (10/22) 10:13 AM CDT (10/22)
Length of Visible Light 12h 02m
Length of Day
11h 13m
Waning Gibbous, 86% of the Moon is Illuminated
Oct 22
Waning Gibbous
Oct 26
Last Quarter
Nov 3
New
Nov 9
First Quarter
Nov 17
Full

Hourly Weather History & Observations

Time (CDT) Temp. Dew Point Humidity Pressure Visibility Wind Dir Wind Speed Gust Speed Precip Events Conditions
12:53 AM 66.0 °F 62.1 °F 87% 29.99 in 10.0 mi Calm Calm - 0.00 in Rain Light Rain
1:53 AM 66.0 °F 63.0 °F 90% 29.98 in 9.0 mi Calm Calm - 0.03 in Rain Light Rain
2:53 AM 66.9 °F 64.0 °F 90% 29.99 in 7.0 mi Calm Calm - 0.01 in Rain Light Rain
3:53 AM 64.0 °F 59.0 °F 84% 29.99 in 10.0 mi Calm Calm - 0.01 in Rain Light Rain
4:53 AM 63.0 °F 60.1 °F 90% 29.98 in 7.0 mi Calm Calm - 0.06 in Rain Rain
5:53 AM 62.1 °F 59.0 °F 90% 29.98 in 10.0 mi SE 4.6 mph - 0.01 in   Overcast
6:53 AM 63.0 °F 57.9 °F 84% 29.98 in 10.0 mi NW 5.8 mph - N/A   Overcast
7:53 AM 64.0 °F 59.0 °F 84% 29.96 in 10.0 mi North 4.6 mph - N/A   Overcast
8:53 AM 66.0 °F 61.0 °F 84% 29.97 in 10.0 mi Calm Calm - N/A   Overcast
9:53 AM 70.0 °F 61.0 °F 73% 29.97 in 10.0 mi North 6.9 mph - N/A   Overcast
10:53 AM 71.1 °F 57.9 °F 63% 29.97 in 10.0 mi Variable 3.5 mph - N/A   Overcast
11:53 AM 71.1 °F 61.0 °F 70% 29.94 in 10.0 mi North 4.6 mph - N/A   Partly Cloudy
12:53 PM 71.1 °F 61.0 °F 70% 29.93 in 10.0 mi North 5.8 mph - N/A   Overcast
1:53 PM 70.0 °F 62.1 °F 76% 29.91 in 10.0 mi NW 4.6 mph - 0.00 in Rain Light Rain
2:53 PM 73.0 °F 62.1 °F 68% 29.91 in 10.0 mi NNW 4.6 mph - 0.00 in   Clear
3:53 PM 73.9 °F 62.1 °F 66% 29.91 in 10.0 mi Calm Calm - N/A   Clear
4:53 PM 73.9 °F 63.0 °F 68% 29.89 in 10.0 mi SE 3.5 mph - N/A   Clear
5:53 PM 71.1 °F 63.0 °F 75% 29.89 in 10.0 mi SSW 3.5 mph - N/A   Clear
6:53 PM 66.9 °F 62.1 °F 84% 29.90 in 10.0 mi West 3.5 mph - N/A   Clear
7:53 PM 68.0 °F 63.0 °F 84% 29.91 in 10.0 mi WNW 3.5 mph - N/A   Clear
8:46 PM 66.2 °F 62.6 °F 88% 29.92 in 10.0 mi NW 3.5 mph - N/A   Partly Cloudy
8:53 PM 66.0 °F 62.1 °F 87% 29.93 in 10.0 mi NW 3.5 mph - N/A   Partly Cloudy
9:53 PM 64.9 °F 60.1 °F 84% 29.94 in 10.0 mi NNW 5.8 mph - N/A   Clear
10:06 PM 64.4 °F 60.8 °F 88% 29.93 in 10.0 mi NNW 5.8 mph - N/A   Partly Cloudy
10:53 PM 64.0 °F 55.9 °F 75% 29.95 in 10.0 mi NNW 9.2 mph - N/A   Clear
11:53 PM 64.9 °F 55.0 °F 70% 29.95 in 10.0 mi NNW 12.7 mph - N/A   Clear